Marion, IN

7:51 PM EST on January 17, 2018 (GMT -0500)
Marion Municipal

Weather History for KMZZ - March, 2014

Change the Weather History Date:

Saturday, March 1, 2014

  Actual Average (KMIE) Record (KMIE)
Temperature  
Mean Temperature 30 °F -  
Max Temperature 52 °F 44 °F 71 °F (1976)
Min Temperature 21 °F 24 °F -8 °F (1993)
Degree Days  
Heating Degree Days 34    
Moisture  
Dew Point 19 °F    
Average Humidity 64    
Maximum Humidity 89    
Minimum Humidity 48    
Precipitation  
Precipitation 0.00 in - - ()
Sea Level Pressure  
Sea Level Pressure 30.12 in    
Wind  
Wind Speed 8 mph (West)    
Max Wind Speed 13 mph    
Max Gust Speed 18 mph    
Visibility 7 miles    
Events Snow    
Averages and records for this station are not official NWS values.
T = Trace of Precipitation, MM = Missing Value Source: NWS Daily Summary

Daily Weather History Graph

Daily Weather History Graph

Search for Another Location

Airport or City:

Trip Planner

Search our weather history database for the weather conditions in past years. The results will help you decide how hot, cold, wet, or windy it might be!

Date:

Astronomy

Mar. 01, 2014 Rise Set
Actual Time 7:16 AM EST 6:34 PM EST
Civil Twilight 6:49 AM EST 7:01 PM EST
Nautical Twilight 6:17 AM EST 7:33 PM EST
Astronomical Twilight 5:45 AM EST 8:04 PM EST
Moon 7:09 AM EST (3/1) 7:21 PM EST (3/1)
Length of Visible Light 12h 12m
Length of Day
11h 17m
New Moon, 0% of the Moon is Illuminated
Mar 1
New Moon
Mar 8
First Quarter
Mar 16
Full
Mar 23
Last Quarter
Mar 30
New

Hourly Weather History & Observations

Time (EST) Temp. Windchill Dew Point Humidity Pressure Visibility Wind Dir Wind Speed Gust Speed Precip Events Conditions
12:15 AM 27.3 °F 19.1 °F 12.4 °F 53% 30.05 in 7.0 mi South 8.1 mph - N/A Snow Light Snow
12:35 AM 27.9 °F 19.1 °F 12.2 °F 52% 30.04 in 10.0 mi South 9.2 mph - N/A   Clear
12:55 AM 28.0 °F 20.0 °F 12.4 °F 52% 30.04 in 10.0 mi South 8.1 mph - N/A   Clear
1:15 AM 28.0 °F 21.7 °F 12.2 °F 52% 30.04 in 7.0 mi South 5.8 mph - N/A Snow Light Snow
1:35 AM 27.1 °F 20.7 °F 12.4 °F 54% 30.04 in 5.0 mi South 5.8 mph - N/A Snow Light Snow
1:55 AM 26.6 °F 21.2 °F 12.6 °F 55% 30.04 in 7.0 mi South 4.6 mph - N/A   Clear
2:15 AM 26.1 °F 20.5 °F 12.4 °F 56% 30.05 in 10.0 mi South 4.6 mph - N/A   Clear
2:35 AM 25.7 °F 20.1 °F 12.6 °F 58% 30.05 in 10.0 mi South 4.6 mph - N/A   Clear
2:55 AM 25.3 °F 19.7 °F 12.7 °F 59% 30.05 in 10.0 mi South 4.6 mph - N/A   Clear
3:15 AM 24.8 °F 19.1 °F 13.1 °F 61% 30.05 in 10.0 mi South 4.6 mph - N/A   Clear
3:35 AM 24.1 °F 17.0 °F 13.3 °F 63% 30.04 in 10.0 mi South 5.8 mph - N/A   Clear
3:55 AM 24.3 °F 18.4 °F 12.9 °F 62% 30.05 in 10.0 mi South 4.6 mph - N/A   Clear
4:15 AM 24.8 °F 16.1 °F 13.1 °F 61% 30.05 in 10.0 mi SSW 8.1 mph - N/A   Clear
4:35 AM 26.2 °F 17.8 °F 13.1 °F 58% 30.05 in 10.0 mi South 8.1 mph - N/A   Clear
4:55 AM 26.2 °F 17.1 °F 13.1 °F 58% 30.05 in 7.0 mi South 9.2 mph - N/A Snow Light Snow
5:15 AM 26.2 °F 17.8 °F 13.1 °F 58% 30.05 in 3.0 mi South 8.1 mph - N/A Snow Light Snow
5:35 AM 26.4 °F 17.3 °F 13.1 °F 57% 30.06 in 5.0 mi South 9.2 mph - N/A Snow Light Snow
5:55 AM 26.8 °F 17.7 °F 13.6 °F 58% 30.05 in 4.0 mi SSW 9.2 mph - N/A Snow Light Snow
6:15 AM 27.5 °F 18.6 °F 14.2 °F 57% 30.06 in 10.0 mi SSW 9.2 mph - N/A   Scattered Clouds
6:35 AM 27.7 °F 20.4 °F 14.9 °F 59% 30.07 in 10.0 mi SSW 6.9 mph - N/A   Scattered Clouds
6:55 AM 28.2 °F 19.5 °F 15.6 °F 59% 30.06 in 10.0 mi SSW 9.2 mph - N/A   Scattered Clouds
7:15 AM 29.3 °F 21.5 °F 15.4 °F 56% 30.06 in 10.0 mi SSW 8.1 mph - N/A   Scattered Clouds
7:35 AM 29.8 °F 21.5 °F 15.3 °F 55% 30.08 in 4.0 mi SSW 9.2 mph - N/A Snow Light Snow
7:55 AM 30.0 °F 22.4 °F 16.0 °F 56% 30.08 in 5.0 mi SSW 8.1 mph - N/A   Haze
8:15 AM 30.7 °F 23.3 °F 16.5 °F 56% 30.09 in 10.0 mi SSW 8.1 mph - N/A   Scattered Clouds
8:35 AM 31.6 °F 23.1 °F 16.9 °F 54% 30.11 in 10.0 mi WSW 10.4 mph - N/A   Mostly Cloudy
8:55 AM 32.5 °F 24.8 °F 17.6 °F 54% 30.11 in 10.0 mi WSW 9.2 mph - N/A   Overcast
9:15 AM 33.3 °F 27.1 °F 18.1 °F 54% 30.11 in 4.0 mi SW 6.9 mph - N/A   Haze
9:35 AM 34.0 °F 28.0 °F 19.2 °F 55% 30.11 in 10.0 mi SW 6.9 mph - N/A   Overcast
9:55 AM 35.1 °F 28.6 °F 19.6 °F 53% 30.11 in 10.0 mi SW 8.1 mph - N/A   Overcast
10:15 AM 35.6 °F 28.6 °F 20.1 °F 53% 30.11 in 10.0 mi WSW 9.2 mph - N/A   Overcast
10:35 AM 36.5 °F 30.3 °F 20.7 °F 53% 30.12 in 10.0 mi WSW 8.1 mph - N/A   Overcast
10:55 AM 37.8 °F 30.7 °F 20.8 °F 51% 30.12 in 7.0 mi WSW 10.4 mph - N/A   Overcast
11:15 AM 37.8 °F 31.3 °F 21.2 °F 51% 30.14 in 5.0 mi West 9.2 mph - N/A Snow Light Snow
11:35 AM 37.9 °F 31.5 °F 22.1 °F 53% 30.14 in 10.0 mi West 9.2 mph - N/A   Overcast
11:55 AM 38.3 °F 31.9 °F 21.9 °F 52% 30.13 in 10.0 mi West 9.2 mph - N/A   Overcast
12:15 PM 38.8 °F 32.1 °F 21.4 °F 50% 30.13 in 10.0 mi WSW 10.4 mph - N/A   Overcast
12:35 PM 39.7 °F 33.7 °F 21.7 °F 49% 30.12 in 5.0 mi West 9.2 mph - N/A   Haze
12:55 PM 40.3 °F 33.9 °F 21.9 °F 48% 30.13 in 5.0 mi WNW 10.4 mph - N/A   Haze
1:15 PM 39.7 °F 33.7 °F 22.6 °F 50% 30.11 in 7.0 mi NW 9.2 mph - N/A   Overcast
1:35 PM 39.7 °F 33.2 °F 22.8 °F 51% 30.11 in 5.0 mi NW 10.4 mph - N/A   Haze
1:55 PM 39.7 °F 33.2 °F 23.5 °F 52% 30.11 in 10.0 mi NW 10.4 mph - N/A   Scattered Clouds
2:15 PM 39.4 °F 32.7 °F 23.7 °F 54% 30.11 in 10.0 mi NW 10.4 mph - N/A   Scattered Clouds
2:35 PM 38.7 °F 31.8 °F 23.7 °F 55% 30.11 in 10.0 mi NW 10.4 mph - N/A   Overcast
2:55 PM 38.3 °F 31.9 °F 24.1 °F 57% 30.11 in 10.0 mi NW 9.2 mph - N/A   Overcast
3:15 PM 37.4 °F 30.8 °F 24.1 °F 59% 30.11 in 7.0 mi NNW 9.2 mph - N/A   Overcast
3:35 PM 36.3 °F 29.5 °F 23.4 °F 59% 30.12 in 7.0 mi NNW 9.2 mph - N/A   Overcast
3:50 PM 35.4 °F 27.8 °F 23.5 °F 62% 30.12 in 10.0 mi North 10.4 mph - N/A   Overcast
4:15 PM 33.6 °F 26.2 °F 25.2 °F 71% 30.14 in 7.0 mi NNW 9.2 mph - N/A   Overcast
4:35 PM 32.4 °F 25.3 °F 26.1 °F 78% 30.14 in 2.5 mi North 8.1 mph - N/A   Haze
4:55 PM 31.3 °F 23.3 °F 25.9 °F 80% 30.14 in 5.0 mi NNW 9.2 mph - N/A   Haze
5:15 PM 30.4 °F 22.9 °F 25.5 °F 82% 30.15 in 7.0 mi North 8.1 mph - N/A   Overcast
5:35 PM 30.2 °F 23.4 °F 25.3 °F 82% 30.15 in 5.0 mi NNW 6.9 mph - N/A   Haze
5:55 PM 29.8 °F 21.5 °F 25.0 °F 82% 30.16 in 4.0 mi North 9.2 mph - N/A   Haze
6:15 PM 29.5 °F 22.5 °F 24.6 °F 82% 30.16 in 5.0 mi NNW 6.9 mph - N/A   Haze
6:35 PM 29.1 °F 20.6 °F 24.4 °F 83% 30.17 in 5.0 mi North 9.2 mph - N/A   Haze
6:55 PM 28.6 °F 19.9 °F 24.3 °F 84% 30.17 in 3.0 mi North 9.2 mph - N/A   Overcast
7:15 PM 28.4 °F 18.5 °F 23.9 °F 83% 30.17 in 4.0 mi North 11.5 mph - N/A   Overcast
7:35 PM 27.9 °F 20.6 °F 23.4 °F 83% 30.16 in 5.0 mi North 6.9 mph - N/A   Haze
7:55 PM 27.7 °F 18.8 °F 23.2 °F 83% 30.17 in 7.0 mi North 9.2 mph - N/A   Overcast
8:15 PM 27.5 °F 18.6 °F 22.5 °F 81% 30.19 in 7.0 mi North 9.2 mph - N/A   Overcast
8:30 PM 27.1 °F 17.5 °F 21.9 °F 81% 30.19 in 7.0 mi North 10.4 mph - N/A   Overcast
8:55 PM 26.1 °F 15.0 °F 21.2 °F 82% 30.21 in 7.0 mi North 12.7 mph 18.4 mph N/A   Overcast
9:15 PM 25.2 °F 13.9 °F 20.1 °F 81% 30.22 in 7.0 mi North 12.7 mph 17.3 mph N/A   Overcast
9:35 PM 24.3 °F 14.6 °F 19.6 °F 82% 30.23 in 2.5 mi North 9.2 mph - N/A Snow Light Snow
9:55 PM 23.7 °F 13.3 °F 18.9 °F 82% 30.24 in 4.0 mi North 10.4 mph - N/A   Haze
10:15 PM 23.5 °F 13.0 °F 18.3 °F 80% 30.23 in 10.0 mi North 10.4 mph - N/A   Overcast
10:35 PM 23.0 °F 13.1 °F 18.3 °F 82% 30.24 in 3.0 mi North 9.2 mph - N/A Snow Light Snow
10:55 PM 22.5 °F 11.1 °F 18.7 °F 85% 30.23 in 2.5 mi North 11.5 mph - N/A Snow Light Snow
11:15 PM 21.9 °F 13.4 °F 18.5 °F 87% 30.22 in 4.0 mi North 6.9 mph - N/A   Overcast
11:35 PM 21.7 °F 12.3 °F 18.9 °F 89% 30.23 in 4.0 mi North 8.1 mph - N/A   Overcast
11:55 PM 21.4 °F 13.8 °F 18.5 °F 89% 30.22 in 4.0 mi North 5.8 mph - N/A Snow Light Snow